Location: Bonningues
(50.7927°N, 2.0150°E)
Time: 16:48:43
(UTC+00:00)

Cosmos 1536 - Pass Details

Date: 08 August 2020
Orbit: 541 x 557 km, 82.5° (Epoch: 24 September)

Event Time Altitude Azimuth Distance (km) Brightness Sun altitude
Exits shadow 22:34:53 43° 90° (E) 774 3.3 -21.0°
Drops below altitude 10° 22:38:36 10° 22° (NNE) 1,822 6.1 -21.2°
Sets 22:40:50 0° 16° (NNE) 2,719 7.2 -21.3°
